Miscellaneous Local Product
Issued by NWS North Platte, NE

Home | Current Version | Previous Version | Graphics & Text | Print | Product List | Glossary On
Versions: 1 2 3 4 5 6 7 8 9 10 11 12 13 14 15 16 17 18 19 20 21 22 23 24 25 26 27 28 29 30 31 32 33 34 35 36 37 38 39 40 41 42 43 44 45 46 47 48 49 50
288
AXUS43 KLBF 120710
MISLBF


WESTERN AND NORTH CENTRAL NEBRASKA HOURLY WEATHER ROUNDUP
NATIONAL WEATHER SERVICE NORTH PLATTE NE
100 AM CST TUE DEC 12 2017

NOTE: "FAIR" INDICATES FEW OR NO CLOUDS BELOW 12,000 FEET WITH NO
SIGNIFICANT WEATHER AND/OR OBSTRUCTIONS TO VISIBILITY.

NOTE: STATIONS NOT REPORTING VARIABLES SUCH AS SKY/WEATHER OR
PRESSURE ARE PROVIDED BY RAWS AND APRS NETWORKS AND ARE NOT UNDER
NATIONAL WEATHER SERVICE QUALITY CONTROL.

...OBSERVATIONS IN AND NEAR THE EASTERN PANHANDLE OF NEBRASKA...

CITY           SKY/WX    TMP DP  RH WIND       PRES   REMARKS
PINE RIDGE     CLOUDY    18  16  92 CALM      30.38F
GORDON         FAIR      21  19  89 W6        30.36F WCI  14
CHADRON        CLOUDY    17  13  84 SW7       30.39F WCI   8
ALLIANCE       CLOUDY    10   6  84 W8        30.38F WCI  -2
SIDNEY         CLOUDY    22  12  65 W12       30.40F WCI  10
CRESCENT LAKE    N/A     20  15  81 CALM        N/A
$$

...OBSERVATIONS IN NORTHERN NEBRASKA AND FAR SOUTHERN SOUTH DAKOTA...

CITY           SKY/WX    TMP DP  RH WIND       PRES   REMARKS
WINNER         CLOUDY    34  30  85 W6        30.35F WCI  29
VALENTINE      CLOUDY    37  26  64 NW7       30.35F WCI  32
THEDFORD       CLEAR     28  24  83 W8        30.38S WCI  20
AINSWORTH      CLOUDY    35  30  80 NW8       30.35F WCI  29
O`NEILL        PTCLDY    20  20 100 W3        30.36F
ORD            CLOUDY    32  29  88 NW7       30.36S WCI  26
BROKEN BOW     CLOUDY    38  27  64 NW13      30.36S WCI  30
VALENTINE NWR    N/A     35  26  69 N9G20       N/A  WCI  28
HALSEY           N/A     36  26  65 NW9G18      N/A  WCI  29
BUTTE            N/A     20  17  89 W3          N/A
EWING            N/A     23  20  87 NW3         N/A
$$

...OBSERVATIONS IN SOUTHWEST NEBRASKA AND FAR NORTHEAST COLORADO...

CITY           SKY/WX    TMP DP  RH WIND       PRES   REMARKS
WRAY           FAIR      19  10  68 W6        30.43F WCI  11
HOLYOKE        FAIR      21  10  63 W8        30.43S WCI  12
IMPERIAL       CLOUDY    24  15  68 NW7       30.43S WCI  16
OGALLALA       CLOUDY    18  14  86 W5        30.41F WCI  11
NORTH PLATTE   CLOUDY    19  16  88 W6        30.40F WCI  11
MCCOOK         CLOUDY    25  20  81 W13       30.42F WCI  14
LEXINGTON      MOCLDY    29  24  80 NW9       30.38S WCI  20
STAPLETON        N/A     23  20  87 CALM        N/A
GOTHENBURG       N/A     25  20  80 NW6         N/A  WCI  18
CALLAWAY         N/A     36  28  73 N9          N/A  WCI  29
$$

...OBSERVATIONS IN CENTRAL LINCOLN COUNTY AREA...

CITY           SKY/WX    TMP DP  RH WIND       PRES   REMARKS
N.P. AIRPORT   CLOUDY    19  16  88 W6        30.40F WCI  11
N.P. DOWNTOWN    N/A     24  20  85 CALM        N/A
N.P. SOUTHEAST   N/A     25  20  82 CALM        N/A
N.P. HILLCREST   N/A     25  22  86 NW8         N/A  WCI  16
$$

...SOME OBSERVATIONS FROM AROUND THE REGION...

CITY           SKY/WX    TMP DP  RH WIND       PRES   REMARKS
DENVER         CLOUDY    34   7  32 SW7       30.45F WCI  28
GRAND JUNCTION CLOUDY    27   2  34 E6        30.52R WCI  20
LARAMIE        CLOUDY    20  12  71 SE3       30.45F
CHEYENNE       CLOUDY    31  16  54 W13       30.42F WCI  21
CASPER         CLOUDY    26  16  65 W12       30.43S WCI  16
BISMARCK       CLOUDY    25  23  92 CALM      30.29F
RAPID CITY     CLOUDY    20  14  77 SW3       30.35F
PIERRE         CLOUDY    29  27  92 W6        30.33F WCI  23
SIOUX FALLS    CLEAR     14  12  92 NW6       30.33F WCI   5
OMAHA          CLEAR     24  13  62 N16       30.35R WCI  11
GRAND ISLAND   CLEAR     30  26  85 NW10      30.38R WCI  21
SCOTTSBLUFF    CLOUDY    25  14  63 N7        30.40F WCI  17
KANSAS CITY    CLEAR     31  23  72 N14G20    30.27R WCI  21
HILL CITY      CLEAR     28  22  78 NW10      30.42F WCI  19
WICHITA        PTCLDY    38  29  70 N15       30.35S WCI  29
DODGE CITY     CLOUDY    29  21  72 NW9       30.42S WCI  20
OKLAHOMA CITY  CLEAR     43  27  53 N21G29    30.35R
DALLAS         PTCLDY    54  22  28 N14       30.24R
AMARILLO       CLEAR     36  10  34 N8        30.45R WCI  30
$$




USA.gov is the U.S. government's official web portal to all federal, state and local government web resources and services.